RH
46 47 48 59 77 80 81 77 54 18 10 5 3 3 4 6 8 9 10 11 11 11 11 11 10 10 10 10 10 10 10 9 8 9 12 14 16 16 19 16 14 13 13
59 46 47 64 85 91 88 63 30 14 9 5 3 4 7 7 9 11 12 12 12 12 11 10 10 9 9 10 10 9 8 8 8 8 7 8 36 14 15 17 25 27 17
65 46 56 88 96 93 69 41 19 12 5 5 3 6 7 8 8 10 10 10 10 9 9 10 10 7 7 7 8 8 9 8 8 9 8 19 11 9 12 15 16 19 22
82 63 82 97 96 78 54 28 16 7 5 6 4 6 7 7 7 8 9 9 8 9 10 11 8 6 7 8 9 10 10 13 14 14 18 18 19 17 16 12 12 15 19
95 95 97 95 95 72 57 33 9 6 5 6 4 7 7 7 6 7 8 7 8 9 11 10 7 7 7 8 8 8 10 13 17 19 19 17 16 16 17 19 18 15 17
93 97 96 96 92 74 62 26 6 4 5 6 6 7 7 6 6 7 7 7 8 10 11 9 8 9 8 8 9 9 8 10 13 16 16 15 14 15 17 19 21 20 15
97 96 97 96 83 94 71 7 7 4 7 5 5 6 6 6 6 6 6 8 9 11 11 14 17 25 20 12 16 20 11 11 10 10 12 14 13 15 17 18 22 26 20
97 96 95 95 97 97 33 9 5 6 6 5 6 6 5 5 5 6 8 8 9 13 19 50 48 47 40 20 25 33 22 14 12 17 13 14 14 15 18 19 21 24 28
96 96 92 95 97 63 11 9 6 6 5 5 5 5 5 5 6 7 8 10 12 15 33 55 44 44 39 27 29 16 13 11 12 14 16 22 18 17 20 21 24 25 27
96 91 97 97 66 12 13 5 5 5 5 5 5 5 5 6 7 9 13 24 28 26 43 53 35 31 22 17 18 18 14 14 16 18 22 23 25 25 23 21 21 26 28
94 97 97 76 18 15 9 5 5 5 5 5 5 6 7 10 13 15 26 39 44 47 43 47 29 24 21 20 18 17 17 19 21 22 26 25 29 31 29 24 20 23 30
85 55 46 16 12 8 5 5 6 7 7 9 12 16 17 18 21 32 40 47 50 54 55 45 38 26 19 20 22 25 27 27 30 33 35 33 32 32 33 29 24 20 25
22 15 7 5 5 6 8 10 11 16 19 20 24 34 43 46 45 46 58 59 61 60 44 39 36 33 27 26 27 30 32 38 42 45 46 46 43 38 35 33 32 28 25
7 8 8 9 11 12 16 22 20 21 24 35 54 63 63 64 74 75 70 71 72 66 57 52 46 36 38 30 31 31 37 52 53 53 52 55 48 45 43 40 39 38 37
10 12 17 18 21 21 21 24 26 33 42 56 63 77 84 97 96 96 98 77 63 50 44 38 35 34 36 41 46 48 55 61 62 62 50 38 27 21 18 18 17 17 17
17 18 20 22 26 34 36 54 64 66 53 64 91 100 100 100 98 96 95 87 77 66 61 44 39 41 48 49 58 64 62 50 40 37 26 21 19 19 20 20 19 18 16
26 29 68 80 48 42 62 67 77 81 97 97 98 96 98 97 94 92 73 64 88 54 55 63 60 57 58 59 54 33 29 26 25 23 23 24 23 22 22 20 19 18 16
30 34 29 26 39 55 63 84 87 100 98 94 98 93 92 92 87 71 61 59 56 67 68 66 58 60 54 41 31 30 29 28 30 29 27 24 23 21 20 20 18 14 15
34 36 45 64 74 69 76 75 97 98 97 93 76 81 92 90 79 57 58 66 68 62 50 44 41 38 35 34 32 35 37 36 36 33 30 28 25 22 18 13 15 13 14
40 50 58 54 47 64 76 71 96 82 67 54 54 69 92 78 58 44 39 39 41 38 42 45 50 54 54 52 50 49 46 41 37 35 33 29 22 16 12 10 9 8 8
29 41 37 29 42 66 71 65 58 71 60 52 52 56 51 38 30 32 38 46 64 66 70 69 64 61 61 56 51 47 46 42 33 26 22 20 18 16 13 12 12 12 10
23 28 26 29 23 31 38 56 69 54 38 42 30 25 24 24 35 46 61 66 71 73 66 65 70 67 61 56 51 42 30 25 28 31 25 21 17 16 16 15 14 14 13
34 30 40 50 41 62 76 45 31 26 26 24 23 22 24 29 33 41 50 57 58 62 66 65 64 62 56 44 35 35 32 29 24 27 26 23 19 16 15 14 13 12 11
29 33 31 29 25 26 24 20 17 18 20 21 20 21 21 27 30 35 35 37 43 53 61 64 66 55 45 43 42 44 44 37 33 28 22 16 14 12 12 10 9 7 5
37 26 21 17 17 16 18 19 19 20 20 21 21 21 24 25 32 33 33 33 43 56 68 67 60 57 52 47 47 47 44 36 25 18 16 14 12 9 5 4 4 4 6
18 17 18 18 20 22 23 23 23 23 24 24 25 28 29 30 32 34 34 40 54 62 64 58 56 56 54 51 45 42 30 19 16 16 12 8 4 6 8 10 14 15 15
Wind_Speed
35 35 35 33 27 23 25 24 23 21 18 14 8 6 8 7 4 2 0 2 3 6 8 10 12 14 16 17 17 17 17 17 18 18 17 17 17 16 16 17 19 19 18
37 38 37 33 30 28 23 19 19 19 14 9 7 11 9 6 4 2 2 4 6 9 12 14 15 17 17 18 20 21 20 19 19 19 19 20 20 19 19 20 19 19 20
39 40 36 32 33 22 16 17 16 14 13 10 10 12 9 7 6 4 6 8 10 13 15 17 19 20 21 20 20 20 19 20 19 18 19 20 19 22 22 23 23 22 21
43 43 42 41 30 18 14 15 14 13 12 11 13 14 10 9 7 7 9 12 15 17 18 20 21 21 18 17 18 19 19 18 17 16 15 20 17 21 21 23 25 24 23
42 35 34 34 22 13 13 13 13 12 11 14 16 15 11 10 9 10 12 15 17 19 21 22 20 19 17 17 19 20 20 19 18 19 18 21 21 23 22 22 23 24 23
48 41 37 41 17 15 12 14 12 12 12 14 16 15 12 11 11 14 16 18 19 21 22 22 21 20 19 18 19 22 22 22 22 22 24 25 24 24 25 24 24 23 23
38 40 48 16 14 14 11 13 12 10 12 14 15 12 12 12 14 17 19 21 23 24 24 22 22 21 20 19 21 25 24 24 25 26 27 28 29 28 27 26 26 26 24
38 30 12 11 14 12 10 11 11 11 12 11 10 11 14 16 17 20 21 23 25 25 23 19 22 23 24 22 24 29 30 27 27 27 29 28 29 30 29 28 28 28 27
31 16 17 14 12 7 9 10 10 10 7 7 9 13 16 18 21 23 25 26 27 26 23 22 24 24 24 23 29 31 31 30 29 28 30 30 30 29 28 28 29 30 30
18 12 11 12 7 10 9 10 9 7 7 10 13 17 19 22 24 25 26 28 26 25 26 26 28 28 29 31 33 35 36 34 30 30 31 33 32 32 29 28 28 30 32
6 15 15 7 11 9 9 9 9 9 11 14 17 21 23 24 26 28 28 28 27 25 29 29 30 32 36 36 38 39 37 38 37 35 33 34 33 33 32 30 29 29 30
11 13 11 9 7 7 9 10 11 12 14 16 20 22 26 28 28 30 31 28 30 29 29 30 31 34 37 41 39 38 39 38 37 38 34 35 34 33 32 31 31 30 29
8 6 5 4 5 8 10 11 11 12 15 18 22 25 27 29 31 32 31 31 30 29 29 31 32 35 34 36 38 39 40 38 37 37 36 35 34 34 34 33 32 32 33
4 4 5 7 9 10 10 9 12 15 18 21 23 26 28 32 34 34 37 33 32 32 35 43 44 41 38 42 42 43 42 38 38 38 38 33 33 33 33 33 33 33 35
4 6 8 9 10 10 11 13 16 18 21 24 26 28 30 33 37 37 31 29 28 32 36 42 44 45 46 46 44 41 39 39 39 38 37 35 33 37 37 37 38 38 38
5 7 9 12 12 14 16 17 19 23 26 27 29 33 31 30 26 37 42 45 41 38 40 43 43 47 45 42 38 37 36 36 36 37 38 43 40 41 43 43 43 45 46
6 8 11 13 16 18 19 22 25 29 35 26 21 24 27 33 42 45 42 41 42 42 43 44 42 40 41 37 35 34 37 38 40 43 42 46 50 50 50 50 50 51 51
7 9 13 17 19 21 23 23 29 35 32 22 42 33 31 34 38 42 42 38 40 39 38 39 39 39 38 38 40 42 43 45 48 50 52 53 54 57 62 62 61 61 63
11 13 15 18 21 24 25 28 29 25 34 41 43 37 32 38 42 37 36 36 37 36 37 38 41 43 45 47 48 49 51 54 55 56 57 60 59 61 63 65 69 69 72
15 17 19 21 24 26 28 32 39 37 34 39 40 42 43 45 43 44 41 40 43 45 47 48 49 50 51 52 53 53 53 56 58 59 62 65 66 67 69 72 74 78 80
19 22 24 25 25 26 29 32 36 37 38 40 41 44 45 46 47 48 48 48 48 51 50 50 52 53 53 54 55 56 56 60 64 68 70 72 73 76 79 82 84 85 88
20 22 25 28 31 32 33 32 35 38 38 38 40 42 44 45 47 48 48 51 50 49 53 55 55 55 56 58 60 63 65 67 70 74 78 81 84 85 86 88 91 95 97
23 27 27 29 31 32 31 35 36 36 37 39 42 45 46 48 49 51 52 52 56 58 58 58 59 59 60 62 67 71 74 77 80 82 83 85 87 90 95 99 102 104 107
28 29 30 30 30 31 31 30 33 35 38 40 43 46 49 50 52 54 57 59 61 60 60 61 62 64 66 71 75 78 81 85 88 87 89 92 96 101 105 108 107 104 99
28 28 24 22 22 23 26 30 33 37 40 43 47 51 53 55 55 56 59 62 64 64 63 63 64 68 73 77 81 85 88 90 90 93 96 101 104 103 97 90 80 73 67
21 17 18 20 23 25 29 32 35 39 42 46 49 52 55 58 59 61 62 64 64 64 64 66 70 75 79 84 88 91 90 92 97 101 103 98 90 71 62 57 54 52 52
Wind_Direction
257 256 257 261 264 269 277 281 288 297 304 308 290 206 167 147 134 120 150 343 346 349 343 343 338 333 333 331 328 325 323 317 311 305 303 302 301 304 308 311 313 316 320
255 254 252 257 260 265 262 276 292 299 302 288 228 188 179 169 174 204 271 298 321 327 330 330 330 327 324 322 322 321 319 312 305 301 297 294 293 296 296 300 301 306 311
252 251 249 250 261 244 264 275 288 291 291 265 211 190 190 196 217 248 281 302 316 320 324 325 324 327 328 329 327 325 321 316 310 307 306 298 305 300 296 289 292 298 301
249 247 252 255 241 245 263 274 280 282 275 238 206 199 203 220 245 277 301 311 313 319 322 321 324 328 332 337 338 334 327 321 313 309 312 309 319 310 309 301 291 290 295
256 258 246 229 230 244 259 270 271 275 253 218 203 205 216 235 261 286 295 304 312 315 317 319 320 324 324 330 333 330 324 318 309 303 306 305 306 303 304 301 298 293 289
249 243 240 232 237 249 256 263 265 256 226 209 201 212 228 250 276 287 297 302 305 308 308 313 314 319 318 322 326 326 317 312 306 300 299 301 302 300 297 294 293 293 291
239 250 247 211 223 249 252 262 265 238 211 204 208 223 242 263 274 283 292 297 299 304 309 311 312 312 311 315 324 326 323 314 307 300 295 296 297 296 294 289 289 288 288
243 216 197 206 230 227 249 267 257 226 209 204 223 239 253 265 276 283 288 289 292 298 304 313 313 313 308 297 311 314 315 314 305 299 295 291 290 291 292 287 282 281 281
203 195 219 206 230 247 252 252 233 225 212 223 245 254 262 273 279 285 288 291 292 295 294 302 316 312 309 298 305 310 311 310 305 300 296 291 287 284 283 282 279 277 276
188 207 213 219 217 240 249 237 238 247 249 254 264 269 276 280 281 283 288 292 293 293 288 299 308 306 307 305 306 309 306 305 300 298 295 291 288 283 277 272 271 272 272
193 188 230 229 233 239 227 234 250 263 270 277 284 286 284 281 283 285 286 290 298 294 292 299 307 309 309 307 307 305 303 304 302 298 293 286 283 281 276 270 267 266 266
202 218 228 235 237 219 228 252 266 280 292 295 290 287 285 286 287 286 285 292 294 293 294 296 303 307 304 303 301 298 298 296 295 294 292 289 286 282 277 273 268 265 263
214 225 225 219 218 235 249 263 283 290 293 293 290 288 288 289 288 287 287 290 288 298 303 303 304 303 300 292 292 294 296 293 289 287 286 283 280 278 277 273 270 268 266
181 201 223 238 242 249 258 272 280 282 287 287 286 284 289 289 286 284 285 284 291 291 302 303 302 302 295 291 287 289 291 288 287 283 280 275 277 275 273 273 271 270 269
211 224 232 241 247 260 275 277 274 283 285 280 280 283 288 288 286 298 306 316 305 302 297 295 294 291 290 289 288 288 288 287 286 282 281 280 278 282 280 279 278 275 273
203 234 245 250 260 276 284 287 288 286 293 294 297 296 290 277 274 310 321 321 313 305 296 291 291 291 292 289 285 284 284 282 279 275 276 278 277 278 280 280 280 278 277
236 265 262 264 279 295 301 294 295 295 290 296 288 314 273 280 292 321 318 313 305 299 291 288 291 291 287 287 285 285 284 284 282 279 278 280 282 278 276 277 278 277 275
258 276 295 305 305 300 298 296 297 297 293 258 313 317 318 314 319 317 313 299 289 292 293 295 295 296 294 290 288 287 286 287 285 285 285 283 284 285 282 277 278 285 281
303 302 297 297 294 299 299 297 291 295 293 301 317 317 311 314 313 311 310 305 304 303 301 298 296 295 291 289 287 288 291 290 290 289 288 286 285 283 281 284 281 280 278
278 274 275 281 285 288 287 283 290 311 315 311 317 320 317 315 311 311 310 311 311 310 309 308 305 301 299 296 295 293 291 291 290 288 286 285 284 281 281 281 281 280 279
277 280 285 287 285 286 287 289 295 304 307 311 315 316 312 309 313 315 316 315 312 308 303 300 300 300 299 296 294 292 292 293 294 292 291 289 286 284 284 283 282 281 278
281 284 284 286 287 290 290 294 297 300 307 313 314 312 310 313 316 315 313 310 307 304 304 303 301 299 297 296 296 296 296 297 299 299 297 295 292 289 287 285 283 281 280
282 284 289 290 295 296 300 303 305 306 312 313 312 312 314 315 313 312 311 310 308 307 304 303 302 301 300 303 304 304 302 301 299 300 299 297 295 293 291 290 288 286 283
279 283 288 295 301 302 302 306 307 309 309 307 308 309 308 310 311 311 311 311 310 309 308 308 307 307 306 305 305 306 306 304 302 299 299 298 297 295 294 292 290 288 285
282 289 296 298 302 303 303 304 306 305 306 307 306 306 308 309 307 306 307 310 311 311 310 308 307 306 307 307 307 307 306 304 304 303 299 299 299 298 295 293 289 285 282
287 292 295 296 298 300 303 304 304 305 305 305 304 305 306 306 307 306 308 312 311 309 308 307 308 310 310 310 309 308 307 307 307 307 305 302 300 299 296 291 287 284 281